Meteo pe oră la Bolshoe Naryshkino

Astăzi, 8 Mai, Sâmbătă

Timp Temperatura Precipitaţii Vânt Presiune Umiditate
00:00 +8°C° 1.2 mm 5 m/s 739 mmHg 88%
01:00 +8°C° 1.2 mm 6 m/s 738 mmHg 90%
02:00 +7°C° 0 mm 6 m/s 738 mmHg 92%
03:00 +8°C° 0.8 mm 6 m/s 737 mmHg 93%
04:00 +8°C° 0.8 mm 6 m/s 736 mmHg 93%
05:00 +8°C° 0.8 mm 6 m/s 736 mmHg 94%
06:00 +8°C° 1 mm 6 m/s 735 mmHg 94%
07:00 +8°C° 1 mm 5 m/s 735 mmHg 95%
08:00 +8°C° 0 mm 5 m/s 735 mmHg 95%
09:00 +8°C° 1.1 mm 4 m/s 735 mmHg 95%
10:00 +8°C° 1.1 mm 4 m/s 735 mmHg 96%
11:00 +9°C° 1.1 mm 3 m/s 734 mmHg 97%
12:00 +9°C° 1.2 mm 3 m/s 734 mmHg 97%
13:00 +9°C° 1.2 mm 3 m/s 734 mmHg 97%
14:00 +9°C° 1.2 mm 2 m/s 733 mmHg 96%
15:00 +9°C° 0.3 mm 3 m/s 733 mmHg 96%
16:00 +9°C° 0.3 mm 3 m/s 733 mmHg 96%
17:00 +8°C° 0.3 mm 3 m/s 733 mmHg 96%
18:00 +6°C° 0.6 mm 4 m/s 734 mmHg 95%
19:00 +5°C° 0.6 mm 5 m/s 735 mmHg 95%
20:00 +3°C° 0.6 mm 6 m/s 735 mmHg 95%
21:00 +2°C° 1.7 mm 6 m/s 736 mmHg 95%
22:00 +2°C° 1.7 mm 7 m/s 737 mmHg 95%
23:00 0°C° 1.7 mm 7 m/s 737 mmHg 96%

Mâine, 9 Mai, Duminică

Timp Temperatura Precipitaţii Vânt Presiune Umiditate
00:00 0°C° 0.6 mm 7 m/s 738 mmHg 95%
01:00 +1°C° 0.6 mm 6 m/s 739 mmHg 94%
02:00 +1°C° 0.6 mm 6 m/s 740 mmHg 93%
03:00 +1°C° 0.1 mm 6 m/s 740 mmHg 92%
04:00 +1°C° 0.1 mm 5 m/s 741 mmHg 91%
05:00 +1°C° 0.1 mm 5 m/s 741 mmHg 90%
06:00 +2°C° 0 mm 5 m/s 742 mmHg 87%
07:00 +3°C° 0 mm 5 m/s 742 mmHg 83%
08:00 +3°C° 0 mm 6 m/s 743 mmHg 80%
09:00 +4°C° 0 mm 6 m/s 744 mmHg 75%
10:00 +5°C° 0 mm 6 m/s 744 mmHg 70%
11:00 +5°C° 0 mm 6 m/s 745 mmHg 65%
12:00 +7°C° 0 mm 6 m/s 745 mmHg 62%
13:00 +8°C° 0 mm 6 m/s 746 mmHg 59%
14:00 +8°C° 0 mm 5 m/s 746 mmHg 56%
15:00 +8°C° 0 mm 5 m/s 747 mmHg 56%
16:00 +10°C° 0 mm 4 m/s 747 mmHg 56%
17:00 +10°C° 0 mm 3 m/s 747 mmHg 57%
18:00 +8°C° 0 mm 3 m/s 748 mmHg 63%
19:00 +7°C° 0 mm 3 m/s 748 mmHg 69%
20:00 +5°C° 0 mm 2 m/s 749 mmHg 75%
21:00 +4°C° 0 mm 2 m/s 749 mmHg 76%
22:00 +4°C° 0 mm 2 m/s 750 mmHg 78%
23:00 +2°C° 0 mm 3 m/s 750 mmHg 79%

Poimâine, 10 Mai, Luni

Timp Temperatura Precipitaţii Vânt Presiune Umiditate
00:00 +3°C° 0 mm 2 m/s 751 mmHg 79%
01:00 +2°C° 0 mm 2 m/s 751 mmHg 79%
02:00 +2°C° 0 mm 2 m/s 751 mmHg 79%
03:00 +2°C° 0 mm 2 m/s 752 mmHg 78%
04:00 +2°C° 0 mm 2 m/s 752 mmHg 77%
05:00 +2°C° 0 mm 2 m/s 753 mmHg 76%
06:00 +5°C° 0 mm 2 m/s 753 mmHg 68%
07:00 +7°C° 0 mm 2 m/s 753 mmHg 60%
08:00 +9°C° 0 mm 2 m/s 753 mmHg 53%
09:00 +11°C° 0 mm 3 m/s 753 mmHg 48%
10:00 +12°C° 0 mm 3 m/s 753 mmHg 43%
11:00 +13°C° 0 mm 3 m/s 753 mmHg 39%
12:00 +14°C° 0 mm 3 m/s 753 mmHg 38%
13:00 +14°C° 0 mm 3 m/s 753 mmHg 38%
14:00 +15°C° 0 mm 4 m/s 753 mmHg 37%
15:00 +14°C° 0 mm 3 m/s 753 mmHg 42%
16:00 +14°C° 0 mm 3 m/s 752 mmHg 47%
17:00 +13°C° 0 mm 3 m/s 752 mmHg 52%
18:00 +11°C° 0 mm 3 m/s 752 mmHg 59%
19:00 +9°C° 0 mm 3 m/s 753 mmHg 67%
20:00 +7°C° 0 mm 3 m/s 753 mmHg 74%
21:00 +7°C° 0 mm 3 m/s 753 mmHg 75%
22:00 +5°C° 0 mm 3 m/s 753 mmHg 77%
23:00 +5°C° 0 mm 3 m/s 752 mmHg 78%

11 Mai, Marţi

Timp Temperatura Precipitaţii Vânt Presiune Umiditate
00:00 +4°C° 0 mm 3 m/s 752 mmHg 78%
01:00 +4°C° 0 mm 3 m/s 752 mmHg 79%
02:00 +3°C° 0 mm 3 m/s 753 mmHg 80%
03:00 +4°C° 0 mm 3 m/s 752 mmHg 78%
04:00 +4°C° 0 mm 4 m/s 752 mmHg 77%
05:00 +4°C° 0 mm 4 m/s 752 mmHg 76%
06:00 +6°C° 0 mm 5 m/s 752 mmHg 70%
07:00 +8°C° 0 mm 5 m/s 752 mmHg 64%
08:00 +10°C° 0 mm 6 m/s 752 mmHg 57%
09:00 +11°C° 0 mm 6 m/s 752 mmHg 56%
10:00 +14°C° 0 mm 6 m/s 751 mmHg 54%
11:00 +15°C° 0 mm 6 m/s 751 mmHg 52%
12:00 +16°C° 0 mm 6 m/s 751 mmHg 55%
13:00 +17°C° 0 mm 6 m/s 750 mmHg 58%
14:00 +17°C° 0 mm 6 m/s 750 mmHg 60%
15:00 +16°C° 0 mm 5 m/s 750 mmHg 65%
16:00 +16°C° 0 mm 5 m/s 750 mmHg 70%
17:00 +15°C° 0 mm 5 m/s 751 mmHg 75%
18:00 +14°C° 0 mm 4 m/s 750 mmHg 79%
19:00 +13°C° 0 mm 3 m/s 750 mmHg 83%
20:00 +12°C° 0 mm 3 m/s 750 mmHg 86%
21:00 +12°C° 0 mm 3 m/s 750 mmHg 88%
22:00 +12°C° 0 mm 3 m/s 749 mmHg 90%
23:00 +11°C° 0 mm 3 m/s 749 mmHg 93%

12 Mai, Miercuri

Timp Temperatura Precipitaţii Vânt Presiune Umiditate
00:00 +12°C° 0.4 mm 2 m/s 749 mmHg 93%
01:00 +12°C° 0.4 mm 2 m/s 748 mmHg 94%
02:00 +12°C° 0.4 mm 2 m/s 748 mmHg 95%
03:00 +10°C° 0.3 mm 2 m/s 748 mmHg 95%
04:00 +10°C° 0.3 mm 2 m/s 748 mmHg 96%
05:00 +10°C° 0.3 mm 2 m/s 748 mmHg 97%
06:00 +9°C° 0.7 mm 2 m/s 748 mmHg 96%
07:00 +9°C° 0.7 mm 2 m/s 748 mmHg 95%
08:00 +9°C° 0.7 mm 2 m/s 748 mmHg 95%
09:00 +12°C° 0 mm 2 m/s 748 mmHg 85%
10:00 +13°C° 0 mm 3 m/s 748 mmHg 75%
11:00 +15°C° 0 mm 4 m/s 748 mmHg 66%
12:00 +15°C° 0 mm 4 m/s 748 mmHg 64%
13:00 +15°C° 0 mm 4 m/s 748 mmHg 62%
14:00 +17°C° 0 mm 4 m/s 747 mmHg 60%
15:00 +17°C° 0 mm 3 m/s 747 mmHg 62%
16:00 +17°C° 0 mm 3 m/s 747 mmHg 65%
17:00 +16°C° 0 mm 3 m/s 747 mmHg 67%
18:00 +14°C° 0 mm 3 m/s 746 mmHg 74%
19:00 +13°C° 0 mm 3 m/s 746 mmHg 81%
20:00 +12°C° 0 mm 2 m/s 746 mmHg 89%
21:00 +12°C° 0 mm 2 m/s 745 mmHg 91%
22:00 +12°C° 0 mm 2 m/s 745 mmHg 94%
23:00 +12°C° 0 mm 2 m/s 745 mmHg 97%

13 Mai, Joi

Timp Temperatura Precipitaţii Vânt Presiune Umiditate
00:00 +10°C° 0 mm 2 m/s 745 mmHg 97%
01:00 +10°C° 0 mm 2 m/s 744 mmHg 97%
02:00 +10°C° 0 mm 2 m/s 744 mmHg 97%
03:00 +10°C° 0 mm 3 m/s 744 mmHg 96%
04:00 +10°C° 0 mm 3 m/s 744 mmHg 95%
05:00 +10°C° 0 mm 3 m/s 744 mmHg 94%
06:00 +11°C° 0.2 mm 3 m/s 744 mmHg 92%
07:00 +11°C° 0.2 mm 3 m/s 744 mmHg 89%
08:00 +12°C° 0.2 mm 4 m/s 744 mmHg 87%
09:00 +14°C° 0.2 mm 4 m/s 744 mmHg 80%
10:00 +15°C° 0.2 mm 5 m/s 744 mmHg 74%
11:00 +17°C° 0.2 mm 6 m/s 744 mmHg 67%
12:00 +17°C° 0.1 mm 6 m/s 744 mmHg 65%
13:00 +19°C° 0.1 mm 5 m/s 744 mmHg 63%
14:00 +19°C° 0.1 mm 5 m/s 744 mmHg 61%
15:00 +18°C° 0.1 mm 4 m/s 744 mmHg 66%
16:00 +18°C° 0.1 mm 4 m/s 744 mmHg 71%
17:00 +17°C° 0.1 mm 3 m/s 744 mmHg 77%
18:00 +16°C° 0 mm 3 m/s 744 mmHg 80%
19:00 +14°C° 0 mm 3 m/s 743 mmHg 83%
20:00 +13°C° 0 mm 3 m/s 743 mmHg 86%
21:00 +13°C° 0.1 mm 3 m/s 743 mmHg 86%
22:00 +13°C° 0.1 mm 4 m/s 743 mmHg 87%
23:00 +13°C° 0.1 mm 4 m/s 743 mmHg 88%
Arată mai mult

Formular de consimțământ

Meteoprog și furnizorii noștri de servicii pot stoca și accesa date personale, precum cookies, identificatori de dispozitiv sau alte tehnologii similare pe dispozitivul dumneavoastră și procesa astfel de date pentru a personaliza conținutul și reclamele, dar și pentru a oferi caracteristici de social media și pentru a analiza traficul.

  • Stocarea și/sau accesarea informațiilor pe dispozitivul dumneavoastră

    Cookies, identificatori de dispozitiv sau alte informații pot fi stocate sau accesate pe dispozitiv în scopurile indicate mai sus.

  • Reclame și conținut personalizat, evaluarea reclamelor și a conținutului, informații despre audiențe și dezvoltarea produselor

    Reclamele și conținutul pot fi personalizate pe baza unui profil. Pot fi adăugate date suplimentare pentru a personaliza mai bine reclamele și conținutul. Performanța reclamelor și conținutului poate fi măsurată. Pot fi obținute informații despre utilizatorii care au văzut reclamele și conținutul. Aceste date pot fi utilizate pentru a dezvolta sau îmbunătăți experiența utilizatorilor, sistemele și software-ul.

Dând clic pe ‘Sunt de acord’, permiteți utilizarea cookie-urilor menționate, a identificatorilor de dispozitiv, balizelor web sau altor tehnologii similare. Setările pot fi modificate din browser-ul dispozitivului dumneavoastră.

În anumite scopuri, interesele legitime pot prima asupra consimțământului. Puteți citi mai multe informații în acest sens în Politica privind Confidențialitatea Datelor și Cookie.